Hauptseite
METAR-TAF:

METAR-TAF

Flughäfen :

Marham, England

RAF Marham

Breite: 52-39N, Länge: 000-34E, Höhe: 23 m

Beobachtung

Neuester Wetterbericht von vor 1 Stunde und 15 Minuten, um 08:50 UTC
Wind 10 kt aus Ost
Temperatur 1°C
Luftfeuchtigkeit 69%
Luftdruck 1030 hPa
Sichtweite 10 km oder mehr

METAR: EGYM 250850Z AUTO 09010KT 9999 NCD 01/M04 Q1030

Zeit: 10:05 (10:05 UTC)


TAF: fehlend

Wetterbeobachtungen und Prognosen von mehr als 4000 Flughäfen (METAR und TAF Bericht).

Die verfügbaren Stationen werden durch gelbe und rote Markierungen auf der Karte dargestellt.

Führen Sie die Maus auf sie, um den Namen der Station zu sehen.

Darauf klicken, um die Beobachtung von Wetterbeobachtungen und Prognosen zu sehen.

Um die Karte zu ändern : klicken Sie auf den grünen Tasten mit einem schwarzen Kreuz Zum Vergrößern, auf den grünen Button mit einem Gedankenstrich zu verkleinern, oder auf die grünen Pfeile für benachbarte Karten.


METAR-TAF: